Time,TemperatureF,DewpointF,PressureIn,WindDirection,WindDirectionDegrees,WindSpeedMPH,WindSpeedGustMPH,Humidity,HourlyPrecipIn,Conditions,Clouds,dailyrainin,SoftwareType,DateUTC
2013-03-31 00:00:00,27.4,21.0,29.67,SW,225,1.2,3.0,72,0.00,,,0.00,Rainwise IP-100,2013-03-31 04:00:00,
2013-03-31 00:01:00,27.6,21.0,29.67,SW,225,0.0,3.0,72,0.00,,,0.00,Rainwise IP-100,2013-03-31 04:01:00,
2013-03-31 00:06:00,27.6,21.0,29.67,SW,225,0.0,1.2,72,0.00,,,0.00,Rainwise IP-100,2013-03-31 04:06:00,
2013-03-31 00:11:00,27.5,21.0,29.67,SW,225,0.0,1.4,72,0.00,,,0.00,Rainwise IP-100,2013-03-31 04:11:00,
2013-03-31 00:16:00,27.4,21.0,29.67,SW,225,0.0,1.2,72,0.00,,,0.00,Rainwise IP-100,2013-03-31 04:16:00,
2013-03-31 00:22:00,27.3,21.0,29.67,SW,225,0.0,1.4,73,0.00,,,0.00,Rainwise IP-100,2013-03-31 04:22:00,
2013-03-31 00:26:00,27.1,21.0,29.67,SW,225,0.0,1.2,74,0.00,,,0.00,Rainwise IP-100,2013-03-31 04:26:00,
2013-03-31 00:32:00,26.9,21.0,29.68,SW,225,0.0,1.2,74,0.00,,,0.00,Rainwise IP-100,2013-03-31 04:32:00,
2013-03-31 00:37:00,26.7,21.0,29.67,SW,225,1.2,1.2,74,0.00,,,0.00,Rainwise IP-100,2013-03-31 04:37:00,
2013-03-31 00:42:00,26.9,21.0,29.67,SW,225,0.0,1.9,75,0.00,,,0.00,Rainwise IP-100,2013-03-31 04:42:00,
2013-03-31 00:47:00,26.9,21.0,29.67,SW,225,0.0,1.2,75,0.00,,,0.00,Rainwise IP-100,2013-03-31 04:47:00,
2013-03-31 00:52:00,26.6,21.0,29.67,SW,225,0.0,0.0,75,0.00,,,0.00,Rainwise IP-100,2013-03-31 04:52:00,
2013-03-31 00:57:00,26.5,21.0,29.67,SW,225,0.0,0.0,75,0.00,,,0.00,Rainwise IP-100,2013-03-31 04:57:00,
2013-03-31 01:02:00,26.7,21.0,29.67,SW,225,0.0,2.1,75,0.00,,,0.00,Rainwise IP-100,2013-03-31 05:02:00,
2013-03-31 01:07:00,26.7,21.0,29.67,SW,225,2.3,2.3,75,0.00,,,0.00,Rainwise IP-100,2013-03-31 05:07:00,
2013-03-31 01:12:00,26.7,21.0,29.66,SW,225,2.1,3.0,76,0.00,,,0.00,Rainwise IP-100,2013-03-31 05:12:00,
2013-03-31 01:17:00,26.6,21.0,29.67,SW,225,0.0,2.1,76,0.00,,,0.00,Rainwise IP-100,2013-03-31 05:17:00,
2013-03-31 01:22:00,26.7,23.0,29.67,SW,225,0.0,1.6,77,0.00,,,0.00,Rainwise IP-100,2013-03-31 05:22:00,
2013-03-31 01:27:00,26.5,23.0,29.67,SW,225,0.0,0.0,77,0.00,,,0.00,Rainwise IP-100,2013-03-31 05:27:00,
2013-03-31 01:32:00,26.4,21.0,29.67,SW,225,0.0,1.9,77,0.00,,,0.00,Rainwise IP-100,2013-03-31 05:32:00,
2013-03-31 01:38:00,26.4,21.0,29.67,SW,225,0.0,1.6,78,0.00,,,0.00,Rainwise IP-100,2013-03-31 05:38:00,
2013-03-31 01:43:00,26.3,21.0,29.67,SW,225,0.0,1.6,78,0.00,,,0.00,Rainwise IP-100,2013-03-31 05:43:00,
2013-03-31 01:48:00,26.2,21.0,29.67,SW,225,0.0,0.0,78,0.00,,,0.00,Rainwise IP-100,2013-03-31 05:48:00,
2013-03-31 01:53:00,26.0,21.0,29.67,SW,225,0.0,1.2,78,0.00,,,0.00,Rainwise IP-100,2013-03-31 05:53:00,
2013-03-31 01:58:00,26.0,21.0,29.67,SW,225,1.2,1.4,78,0.00,,,0.00,Rainwise IP-100,2013-03-31 05:58:00,
2013-03-31 02:03:00,26.1,21.0,29.67,SW,225,0.0,1.9,79,0.00,,,0.00,Rainwise IP-100,2013-03-31 06:03:00,
2013-03-31 02:08:00,25.9,21.0,29.67,SW,225,1.4,1.6,79,0.00,,,0.00,Rainwise IP-100,2013-03-31 06:08:00,
2013-03-31 02:13:00,25.8,21.0,29.68,SW,225,1.2,2.3,79,0.00,,,0.00,Rainwise IP-100,2013-03-31 06:13:00,
2013-03-31 02:18:00,25.9,21.0,29.67,SW,225,0.0,1.9,79,0.00,,,0.00,Rainwise IP-100,2013-03-31 06:18:00,
2013-03-31 02:23:00,25.9,21.0,29.68,SW,225,1.2,1.9,79,0.00,,,0.00,Rainwise IP-100,2013-03-31 06:23:00,
2013-03-31 02:28:00,25.9,21.0,29.67,SW,225,1.2,1.9,79,0.00,,,0.00,Rainwise IP-100,2013-03-31 06:28:00,
2013-03-31 02:33:00,25.7,21.0,29.67,SW,225,0.0,1.6,79,0.00,,,0.00,Rainwise IP-100,2013-03-31 06:33:00,
2013-03-31 02:38:00,25.6,21.0,29.68,SW,225,0.0,1.2,79,0.00,,,0.00,Rainwise IP-100,2013-03-31 06:38:00,
2013-03-31 02:43:00,25.5,21.0,29.67,SW,225,0.0,0.0,79,0.00,,,0.00,Rainwise IP-100,2013-03-31 06:43:00,
2013-03-31 02:48:00,25.1,21.0,29.67,SW,225,0.0,0.0,79,0.00,,,0.00,Rainwise IP-100,2013-03-31 06:48:00,
2013-03-31 02:54:00,25.0,21.0,29.68,SW,225,1.4,1.9,79,0.00,,,0.00,Rainwise IP-100,2013-03-31 06:54:00,
2013-03-31 02:59:00,25.2,21.0,29.67,SW,225,0.0,2.1,80,0.00,,,0.00,Rainwise IP-100,2013-03-31 06:59:00,
2013-03-31 03:04:00,25.0,21.0,29.67,SW,225,0.0,0.0,80,0.00,,,0.00,Rainwise IP-100,2013-03-31 07:04:00,
2013-03-31 03:09:00,24.8,21.0,29.67,SW,225,0.0,0.0,80,0.00,,,0.00,Rainwise IP-100,2013-03-31 07:09:00,
2013-03-31 03:14:00,24.6,21.0,29.67,SW,225,0.0,0.0,80,0.00,,,0.00,Rainwise IP-100,2013-03-31 07:14:00,
2013-03-31 03:19:00,24.5,21.0,29.67,SW,225,0.0,1.2,80,0.00,,,0.00,Rainwise IP-100,2013-03-31 07:19:00,
2013-03-31 03:24:00,24.7,21.0,29.67,SW,225,0.0,0.0,80,0.00,,,0.00,Rainwise IP-100,2013-03-31 07:24:00,
2013-03-31 03:29:00,24.7,21.0,29.67,SW,225,0.0,0.0,80,0.00,,,0.00,Rainwise IP-100,2013-03-31 07:29:00,
2013-03-31 03:34:00,24.7,21.0,29.67,SW,225,0.0,0.0,80,0.00,,,0.00,Rainwise IP-100,2013-03-31 07:34:00,
2013-03-31 03:39:00,24.4,18.0,29.67,SW,225,0.0,0.0,80,0.00,,,0.00,Rainwise IP-100,2013-03-31 07:39:00,
2013-03-31 03:44:00,24.0,21.0,29.67,SW,225,0.0,0.0,81,0.00,,,0.00,Rainwise IP-100,2013-03-31 07:44:00,
2013-03-31 03:49:00,23.6,21.0,29.67,SW,225,0.0,0.0,81,0.00,,,0.00,Rainwise IP-100,2013-03-31 07:49:00,
2013-03-31 03:54:00,23.6,21.0,29.67,SW,225,0.0,0.0,82,0.00,,,0.00,Rainwise IP-100,2013-03-31 07:54:00,
2013-03-31 03:59:00,23.8,21.0,29.66,SW,225,0.0,0.0,83,0.00,,,0.00,Rainwise IP-100,2013-03-31 07:59:00,
2013-03-31 04:04:00,24.0,21.0,29.67,SW,225,0.0,0.0,82,0.00,,,0.00,Rainwise IP-100,2013-03-31 08:04:00,
2013-03-31 04:10:00,23.9,21.0,29.66,SW,225,0.0,0.0,82,0.00,,,0.00,Rainwise IP-100,2013-03-31 08:10:00,
2013-03-31 04:15:00,23.6,21.0,29.67,SW,225,0.0,0.0,82,0.00,,,0.00,Rainwise IP-100,2013-03-31 08:15:00,
2013-03-31 04:20:00,23.6,21.0,29.67,SW,225,0.0,0.0,82,0.00,,,0.00,Rainwise IP-100,2013-03-31 08:20:00,
2013-03-31 04:25:00,23.7,21.0,29.67,NW,315,2.3,2.3,82,0.00,,,0.00,Rainwise IP-100,2013-03-31 08:25:00,
2013-03-31 04:30:00,23.7,21.0,29.67,NW,315,1.2,3.0,82,0.00,,,0.00,Rainwise IP-100,2013-03-31 08:30:00,
2013-03-31 04:35:00,23.5,21.0,29.67,NW,315,0.0,1.9,82,0.00,,,0.00,Rainwise IP-100,2013-03-31 08:35:00,
2013-03-31 04:40:00,23.4,18.0,29.67,NW,315,0.0,1.4,82,0.00,,,0.00,Rainwise IP-100,2013-03-31 08:40:00,
2013-03-31 04:45:00,23.4,18.0,29.66,NW,315,0.0,0.0,82,0.00,,,0.00,Rainwise IP-100,2013-03-31 08:45:00,
2013-03-31 04:50:00,23.5,21.0,29.67,NW,315,0.0,0.0,82,0.00,,,0.00,Rainwise IP-100,2013-03-31 08:50:00,
2013-03-31 04:55:00,23.4,18.0,29.66,NW,315,0.0,0.0,83,0.00,,,0.00,Rainwise IP-100,2013-03-31 08:55:00,
2013-03-31 05:00:00,23.3,18.0,29.67,NW,315,0.0,0.0,83,0.00,,,0.00,Rainwise IP-100,2013-03-31 09:00:00,
2013-03-31 05:05:00,23.3,18.0,29.67,NW,315,0.0,0.0,84,0.00,,,0.00,Rainwise IP-100,2013-03-31 09:05:00,
2013-03-31 05:10:00,23.2,18.0,29.66,NW,315,0.0,0.0,84,0.00,,,0.00,Rainwise IP-100,2013-03-31 09:10:00,
2013-03-31 05:15:00,22.9,18.0,29.67,NW,315,0.0,0.0,84,0.00,,,0.00,Rainwise IP-100,2013-03-31 09:15:00,
2013-03-31 05:20:00,22.9,18.0,29.66,NW,315,0.0,0.0,84,0.00,,,0.00,Rainwise IP-100,2013-03-31 09:20:00,
2013-03-31 05:26:00,22.9,18.0,29.67,NW,315,0.0,0.0,84,0.00,,,0.00,Rainwise IP-100,2013-03-31 09:26:00,
2013-03-31 05:31:00,22.9,18.0,29.67,NW,315,0.0,0.0,85,0.00,,,0.00,Rainwise IP-100,2013-03-31 09:31:00,
2013-03-31 05:36:00,22.8,18.0,29.66,NW,315,0.0,0.0,85,0.00,,,0.00,Rainwise IP-100,2013-03-31 09:36:00,
2013-03-31 05:41:00,22.8,18.0,29.66,NW,315,0.0,0.0,85,0.00,,,0.00,Rainwise IP-100,2013-03-31 09:41:00,
2013-03-31 05:46:00,22.6,18.0,29.66,NW,315,0.0,0.0,85,0.00,,,0.00,Rainwise IP-100,2013-03-31 09:46:00,
2013-03-31 05:51:00,22.5,18.0,29.66,NW,315,0.0,0.0,86,0.00,,,0.00,Rainwise IP-100,2013-03-31 09:51:00,
2013-03-31 05:56:00,22.3,18.0,29.66,NW,315,0.0,0.0,86,0.00,,,0.00,Rainwise IP-100,2013-03-31 09:56:00,
2013-03-31 06:01:00,22.1,18.0,29.65,NW,315,0.0,0.0,86,0.00,,,0.00,Rainwise IP-100,2013-03-31 10:01:00,
2013-03-31 06:06:00,21.8,18.0,29.65,NW,315,0.0,0.0,86,0.00,,,0.00,Rainwise IP-100,2013-03-31 10:06:00,
2013-03-31 06:11:00,22.0,18.0,29.65,NW,315,1.2,1.2,87,0.00,,,0.00,Rainwise IP-100,2013-03-31 10:11:00,
2013-03-31 06:17:00,22.2,21.0,29.65,NW,315,0.0,1.2,88,0.00,,,0.00,Rainwise IP-100,2013-03-31 10:17:00,
2013-03-31 06:22:00,22.3,21.0,29.65,NW,315,0.0,0.0,88,0.00,,,0.00,Rainwise IP-100,2013-03-31 10:22:00,
2013-03-31 06:27:00,22.2,21.0,29.65,NW,315,0.0,0.0,88,0.00,,,0.00,Rainwise IP-100,2013-03-31 10:27:00,
2013-03-31 06:32:00,22.2,21.0,29.65,NW,315,0.0,0.0,88,0.00,,,0.00,Rainwise IP-100,2013-03-31 10:32:00,
2013-03-31 06:37:00,22.1,21.0,29.65,NW,315,1.9,1.9,88,0.00,,,0.00,Rainwise IP-100,2013-03-31 10:37:00,
2013-03-31 06:42:00,21.9,21.0,29.65,NW,315,0.0,2.1,88,0.00,,,0.00,Rainwise IP-100,2013-03-31 10:42:00,
2013-03-31 06:47:00,21.7,21.0,29.65,NW,315,0.0,0.0,88,0.00,,,0.00,Rainwise IP-100,2013-03-31 10:47:00,
2013-03-31 06:52:00,21.8,21.0,29.65,NW,315,0.0,0.0,88,0.00,,,0.00,Rainwise IP-100,2013-03-31 10:52:00,
2013-03-31 06:57:00,22.0,21.0,29.65,NW,315,0.0,0.0,88,0.00,,,0.00,Rainwise IP-100,2013-03-31 10:57:00,
2013-03-31 07:02:00,22.2,21.0,29.65,South,180,0.0,0.0,88,0.00,,,0.00,Rainwise IP-100,2013-03-31 11:02:00,
2013-03-31 07:07:00,22.5,21.0,29.65,South,180,0.0,2.6,88,0.00,,,0.00,Rainwise IP-100,2013-03-31 11:07:00,
2013-03-31 07:12:00,22.8,21.0,29.66,South,180,1.2,1.4,89,0.00,,,0.00,Rainwise IP-100,2013-03-31 11:12:00,
2013-03-31 07:18:00,23.0,21.0,29.66,South,180,0.0,1.9,89,0.00,,,0.00,Rainwise IP-100,2013-03-31 11:18:00,
2013-03-31 07:23:00,23.4,21.0,29.66,South,180,0.0,1.4,90,0.00,,,0.00,Rainwise IP-100,2013-03-31 11:23:00,
2013-03-31 07:28:00,23.9,23.0,29.66,South,180,0.0,0.0,90,0.00,,,0.00,Rainwise IP-100,2013-03-31 11:28:00,
2013-03-31 07:33:00,24.6,24.0,29.66,South,180,0.0,0.0,92,0.00,,,0.00,Rainwise IP-100,2013-03-31 11:33:00,
2013-03-31 07:38:00,25.5,24.0,29.66,South,180,0.0,0.0,93,0.00,,,0.00,Rainwise IP-100,2013-03-31 11:38:00,
2013-03-31 07:43:00,26.6,26.0,29.66,South,180,0.0,1.6,94,0.00,,,0.00,Rainwise IP-100,2013-03-31 11:43:00,
2013-03-31 07:48:00,27.7,26.0,29.67,South,180,0.0,1.6,95,0.00,,,0.00,Rainwise IP-100,2013-03-31 11:48:00,
2013-03-31 07:53:00,28.6,28.0,29.66,South,180,0.0,2.1,95,0.00,,,0.00,Rainwise IP-100,2013-03-31 11:53:00,
2013-03-31 07:58:00,29.4,28.0,29.66,South,180,0.0,1.4,96,0.00,,,0.00,Rainwise IP-100,2013-03-31 11:58:00,
2013-03-31 08:03:00,30.3,29.0,29.66,South,180,0.0,1.2,96,0.00,,,0.00,Rainwise IP-100,2013-03-31 12:03:00,
2013-03-31 08:08:00,31.2,29.0,29.66,South,180,0.0,0.0,97,0.00,,,0.00,Rainwise IP-100,2013-03-31 12:08:00,
2013-03-31 08:13:00,31.7,31.0,29.66,ESE,112,1.6,0.0,96,0.00,,,0.00,Rainwise IP-100,2013-03-31 12:13:00,
2013-03-31 08:18:00,31.8,31.0,29.66,SSE,157,2.3,2.6,95,0.00,,,0.00,Rainwise IP-100,2013-03-31 12:18:00,
2013-03-31 08:23:00,32.3,31.0,29.66,SSW,202,1.6,2.6,94,0.00,,,0.00,Rainwise IP-100,2013-03-31 12:23:00,
2013-03-31 08:28:00,33.0,31.0,29.66,SSE,157,1.4,3.3,92,0.00,,,0.00,Rainwise IP-100,2013-03-31 12:28:00,
2013-03-31 08:34:00,33.3,31.0,29.66,SSE,157,1.9,2.8,91,0.00,,,0.00,Rainwise IP-100,2013-03-31 12:34:00,
2013-03-31 08:39:00,33.6,32.0,29.65,SSE,157,2.1,3.0,89,0.00,,,0.00,Rainwise IP-100,2013-03-31 12:39:00,
2013-03-31 08:44:00,34.0,31.0,29.65,SSE,157,1.2,2.6,86,0.00,,,0.00,Rainwise IP-100,2013-03-31 12:44:00,
2013-03-31 08:49:00,34.4,31.0,29.65,ENE,67,1.9,2.1,84,0.00,,,0.00,Rainwise IP-100,2013-03-31 12:49:00,
2013-03-31 08:54:00,33.3,29.0,29.65,NE,45,2.3,4.4,82,0.00,,,0.00,Rainwise IP-100,2013-03-31 12:54:00,
2013-03-31 08:59:00,33.1,28.0,29.65,NNE,22,1.9,3.3,80,0.00,,,0.00,Rainwise IP-100,2013-03-31 12:59:00,
2013-03-31 09:04:00,33.7,28.0,29.65,ENE,67,1.6,2.3,77,0.00,,,0.00,Rainwise IP-100,2013-03-31 13:04:00,
2013-03-31 09:09:00,33.4,26.0,29.64,ENE,67,0.0,2.1,74,0.00,,,0.00,Rainwise IP-100,2013-03-31 13:09:00,
2013-03-31 09:14:00,34.2,26.0,29.64,ENE,67,1.9,2.3,72,0.00,,,0.00,Rainwise IP-100,2013-03-31 13:14:00,
2013-03-31 09:19:00,34.0,26.0,29.64,East,90,1.2,2.8,69,0.00,,,0.00,Rainwise IP-100,2013-03-31 13:19:00,
2013-03-31 09:24:00,33.7,26.0,29.64,East,90,1.4,2.8,68,0.00,,,0.00,Rainwise IP-100,2013-03-31 13:24:00,
2013-03-31 09:29:00,33.9,24.0,29.64,NE,45,2.1,3.0,67,0.00,,,0.00,Rainwise IP-100,2013-03-31 13:29:00,
2013-03-31 09:34:00,34.0,24.0,29.64,NE,45,2.6,3.0,66,0.00,,,0.00,Rainwise IP-100,2013-03-31 13:34:00,
2013-03-31 09:39:00,34.0,24.0,29.63,ENE,67,1.6,3.5,65,0.00,,,0.00,Rainwise IP-100,2013-03-31 13:39:00,
2013-03-31 09:44:00,34.4,24.0,29.64,ENE,67,0.0,2.6,64,0.00,,,0.00,Rainwise IP-100,2013-03-31 13:44:00,
2013-03-31 09:50:00,35.5,24.0,29.64,ENE,67,2.8,2.8,64,0.00,,,0.00,Rainwise IP-100,2013-03-31 13:50:00,
2013-03-31 09:55:00,36.2,24.0,29.64,NE,45,1.2,3.7,64,0.00,,,0.00,Rainwise IP-100,2013-03-31 13:55:00,
2013-03-31 10:00:00,37.3,26.0,29.64,SSE,157,1.6,1.6,64,0.00,,,0.00,Rainwise IP-100,2013-03-31 14:00:00,
2013-03-31 10:05:00,38.9,28.0,29.64,SSW,202,0.0,3.5,63,0.00,,,0.00,Rainwise IP-100,2013-03-31 14:05:00,
2013-03-31 10:10:00,39.7,29.0,29.63,SSE,157,2.3,4.0,62,0.00,,,0.00,Rainwise IP-100,2013-03-31 14:10:00,
2013-03-31 10:15:00,40.0,28.0,29.63,SSW,202,3.7,5.6,58,0.00,,,0.00,Rainwise IP-100,2013-03-31 14:15:00,
2013-03-31 10:20:00,40.2,26.0,29.63,SSW,202,3.7,6.3,56,0.00,,,0.00,Rainwise IP-100,2013-03-31 14:20:00,
2013-03-31 10:25:00,40.4,26.0,29.62,SSE,157,1.2,6.3,54,0.00,,,0.00,Rainwise IP-100,2013-03-31 14:25:00,
2013-03-31 10:30:00,40.9,26.0,29.62,SSW,202,4.4,6.1,53,0.00,,,0.00,Rainwise IP-100,2013-03-31 14:30:00,
2013-03-31 10:35:00,41.6,26.0,29.62,South,180,4.2,5.6,52,0.00,,,0.00,Rainwise IP-100,2013-03-31 14:35:00,
2013-03-31 10:40:00,42.5,28.0,29.62,ESE,112,2.3,4.4,52,0.00,,,0.00,Rainwise IP-100,2013-03-31 14:40:00,
2013-03-31 10:45:00,43.3,28.0,29.62,SSW,202,3.0,3.7,53,0.00,,,0.00,Rainwise IP-100,2013-03-31 14:45:00,
2013-03-31 10:50:00,44.1,28.0,29.62,SSW,202,5.1,5.6,52,0.00,,,0.00,Rainwise IP-100,2013-03-31 14:50:00,
2013-03-31 10:55:00,44.2,26.0,29.61,SSE,157,3.3,7.2,48,0.00,,,0.00,Rainwise IP-100,2013-03-31 14:55:00,
2013-03-31 11:00:00,44.6,26.0,29.61,SE,135,3.7,7.9,46,0.00,,,0.00,Rainwise IP-100,2013-03-31 15:00:00,
2013-03-31 11:06:00,45.4,26.0,29.61,SSW,202,2.1,4.7,46,0.00,,,0.00,Rainwise IP-100,2013-03-31 15:06:00,
2013-03-31 11:11:00,46.2,28.0,29.61,ENE,67,2.6,4.2,47,0.00,,,0.00,Rainwise IP-100,2013-03-31 15:11:00,
2013-03-31 11:16:00,46.5,28.0,29.61,East,90,1.4,3.3,47,0.00,,,0.00,Rainwise IP-100,2013-03-31 15:16:00,
2013-03-31 11:21:00,46.7,28.0,29.61,ESE,112,0.0,2.6,46,0.00,,,0.00,Rainwise IP-100,2013-03-31 15:21:00,
2013-03-31 11:26:00,47.4,28.0,29.61,ENE,67,1.4,3.3,45,0.00,,,0.00,Rainwise IP-100,2013-03-31 15:26:00,
2013-03-31 11:31:00,48.2,28.0,29.60,SSE,157,2.1,3.0,43,0.00,,,0.00,Rainwise IP-100,2013-03-31 15:31:00,
2013-03-31 11:36:00,48.8,26.0,29.60,SSW,202,3.7,5.1,41,0.00,,,0.00,Rainwise IP-100,2013-03-31 15:36:00,
2013-03-31 11:41:00,49.4,26.0,29.60,SW,225,4.2,6.5,39,0.00,,,0.00,Rainwise IP-100,2013-03-31 15:41:00,
2013-03-31 11:46:00,49.6,24.0,29.58,SW,225,3.7,6.5,37,0.00,,,0.00,Rainwise IP-100,2013-03-31 15:46:00,
2013-03-31 11:51:00,49.4,24.0,29.59,SSW,202,9.6,9.6,36,0.00,,,0.00,Rainwise IP-100,2013-03-31 15:51:00,
2013-03-31 11:56:00,49.3,23.0,29.58,SSW,202,8.6,13.5,35,0.00,,,0.00,Rainwise IP-100,2013-03-31 15:56:00,
2013-03-31 12:02:00,49.7,23.0,29.58,SSW,202,5.8,12.1,34,0.00,,,0.00,Rainwise IP-100,2013-03-31 16:02:00,
2013-03-31 12:07:00,50.3,23.0,29.58,SSW,202,6.5,15.6,33,0.00,,,0.00,Rainwise IP-100,2013-03-31 16:07:00,
2013-03-31 12:12:00,50.6,23.0,29.57,SSW,202,11.4,18.2,32,0.00,,,0.00,Rainwise IP-100,2013-03-31 16:12:00,
2013-03-31 12:17:00,50.7,23.0,29.57,SSW,202,15.6,15.6,32,0.00,,,0.00,Rainwise IP-100,2013-03-31 16:17:00,
2013-03-31 12:22:00,50.9,23.0,29.57,SSE,157,10.7,18.2,32,0.00,,,0.00,Rainwise IP-100,2013-03-31 16:22:00,
2013-03-31 12:27:00,51.0,23.0,29.57,SSE,157,15.2,18.9,31,0.00,,,0.00,Rainwise IP-100,2013-03-31 16:27:00,
2013-03-31 12:32:00,51.1,23.0,29.56,SSW,202,11.9,19.4,31,0.00,,,0.00,Rainwise IP-100,2013-03-31 16:32:00,
2013-03-31 12:37:00,51.5,23.0,29.56,SW,225,11.0,16.6,31,0.00,,,0.00,Rainwise IP-100,2013-03-31 16:37:00,
2013-03-31 12:42:00,51.8,23.0,29.55,WSW,247,5.6,17.0,30,0.00,,,0.00,Rainwise IP-100,2013-03-31 16:42:00,
2013-03-31 12:47:00,52.0,23.0,29.56,SSE,157,14.5,20.8,30,0.00,,,0.00,Rainwise IP-100,2013-03-31 16:47:00,
2013-03-31 12:52:00,52.1,23.0,29.55,SSW,202,9.3,19.6,30,0.00,,,0.00,Rainwise IP-100,2013-03-31 16:52:00,
2013-03-31 12:57:00,52.4,21.0,29.55,SSW,202,7.9,16.8,29,0.00,,,0.00,Rainwise IP-100,2013-03-31 16:57:00,
2013-03-31 13:02:00,52.7,23.0,29.55,SSW,202,14.5,14.5,29,0.00,,,0.00,Rainwise IP-100,2013-03-31 17:02:00,
2013-03-31 13:07:00,52.8,23.0,29.54,South,180,9.6,20.3,29,0.00,,,0.00,Rainwise IP-100,2013-03-31 17:07:00,
2013-03-31 13:12:00,52.9,23.0,29.54,South,180,5.1,16.3,29,0.00,,,0.00,Rainwise IP-100,2013-03-31 17:12:00,
2013-03-31 13:18:00,53.1,23.0,29.54,SSW,202,4.0,15.2,29,0.00,,,0.00,Rainwise IP-100,2013-03-31 17:18:00,
2013-03-31 13:23:00,53.3,21.0,29.53,SSW,202,6.1,14.0,28,0.00,,,0.00,Rainwise IP-100,2013-03-31 17:23:00,
2013-03-31 13:28:00,53.1,21.0,29.53,SW,225,6.1,15.6,28,0.00,,,0.00,Rainwise IP-100,2013-03-31 17:28:00,
2013-03-31 13:33:00,53.2,21.0,29.52,SSW,202,7.7,12.1,28,0.00,,,0.00,Rainwise IP-100,2013-03-31 17:33:00,
2013-03-31 13:38:00,53.5,21.0,29.52,WSW,247,9.1,15.9,28,0.00,,,0.00,Rainwise IP-100,2013-03-31 17:38:00,
2013-03-31 13:43:00,53.8,23.0,29.52,SW,225,9.8,16.3,28,0.00,,,0.00,Rainwise IP-100,2013-03-31 17:43:00,
2013-03-31 13:48:00,54.1,21.0,29.52,South,180,11.7,14.9,27,0.00,,,0.00,Rainwise IP-100,2013-03-31 17:48:00,
2013-03-31 13:53:00,54.0,21.0,29.51,SSW,202,6.1,15.4,27,0.00,,,0.00,Rainwise IP-100,2013-03-31 17:53:00,
2013-03-31 13:58:00,53.9,21.0,29.51,ENE,67,1.9,12.8,27,0.00,,,0.00,Rainwise IP-100,2013-03-31 17:58:00,
2013-03-31 14:03:00,54.3,23.0,29.51,SSW,202,2.3,18.0,27,0.00,,,0.00,Rainwise IP-100,2013-03-31 18:03:00,
2013-03-31 14:08:00,54.7,21.0,29.51,SSW,202,7.5,16.3,26,0.00,,,0.00,Rainwise IP-100,2013-03-31 18:08:00,
2013-03-31 14:13:00,54.8,21.0,29.50,SSW,202,7.9,16.6,26,0.00,,,0.00,Rainwise IP-100,2013-03-31 18:13:00,
2013-03-31 14:18:00,54.7,21.0,29.50,SSW,202,7.9,14.2,26,0.00,,,0.00,Rainwise IP-100,2013-03-31 18:18:00,
2013-03-31 14:23:00,54.6,21.0,29.50,SSE,157,4.9,14.2,26,0.00,,,0.00,Rainwise IP-100,2013-03-31 18:23:00,
2013-03-31 14:28:00,54.6,21.0,29.50,SSE,157,7.2,11.7,26,0.00,,,0.00,Rainwise IP-100,2013-03-31 18:28:00,
2013-03-31 14:34:00,54.5,21.0,29.49,WSW,247,7.9,16.6,26,0.00,,,0.00,Rainwise IP-100,2013-03-31 18:34:00,
2013-03-31 14:39:00,54.4,21.0,29.49,SW,225,8.9,11.9,26,0.00,,,0.00,Rainwise IP-100,2013-03-31 18:39:00,
2013-03-31 14:44:00,54.3,21.0,29.49,SSE,157,7.5,16.3,26,0.00,,,0.00,Rainwise IP-100,2013-03-31 18:44:00,
2013-03-31 14:49:00,54.3,21.0,29.49,SSW,202,6.3,16.1,26,0.00,,,0.00,Rainwise IP-100,2013-03-31 18:49:00,
2013-03-31 14:54:00,54.1,21.0,29.49,SSW,202,8.2,19.8,26,0.00,,,0.00,Rainwise IP-100,2013-03-31 18:54:00,
2013-03-31 14:59:00,54.0,21.0,29.48,SSW,202,6.1,18.0,26,0.00,,,0.00,Rainwise IP-100,2013-03-31 18:59:00,
2013-03-31 15:04:00,53.8,21.0,29.49,SSW,202,6.1,19.6,26,0.00,,,0.00,Rainwise IP-100,2013-03-31 19:04:00,
2013-03-31 15:09:00,53.8,21.0,29.48,SSW,202,9.8,17.0,27,0.00,,,0.00,Rainwise IP-100,2013-03-31 19:09:00,
2013-03-31 15:14:00,53.7,21.0,29.48,WSW,247,6.5,18.4,27,0.00,,,0.00,Rainwise IP-100,2013-03-31 19:14:00,
2013-03-31 15:19:00,53.5,21.0,29.48,SSW,202,7.7,20.3,27,0.00,,,0.00,Rainwise IP-100,2013-03-31 19:19:00,
2013-03-31 15:24:00,53.5,21.0,29.47,SSE,157,19.1,19.1,27,0.00,,,0.00,Rainwise IP-100,2013-03-31 19:24:00,
2013-03-31 15:29:00,53.5,21.0,29.47,SSE,157,6.8,19.1,28,0.00,,,0.00,Rainwise IP-100,2013-03-31 19:29:00,
2013-03-31 15:34:00,53.5,21.0,29.47,SSE,157,4.9,14.2,28,0.00,,,0.00,Rainwise IP-100,2013-03-31 19:34:00,
2013-03-31 15:39:00,53.4,21.0,29.47,SSW,202,10.0,13.8,28,0.00,,,0.00,Rainwise IP-100,2013-03-31 19:39:00,
2013-03-31 15:44:00,53.4,21.0,29.47,SW,225,8.2,16.6,28,0.00,,,0.00,Rainwise IP-100,2013-03-31 19:44:00,
2013-03-31 15:50:00,53.5,21.0,29.47,South,180,7.7,15.6,28,0.00,,,0.00,Rainwise IP-100,2013-03-31 19:50:00,
2013-03-31 15:55:00,53.4,21.0,29.47,SSW,202,12.6,17.7,28,0.00,,,0.00,Rainwise IP-100,2013-03-31 19:55:00,
2013-03-31 16:00:00,53.2,23.0,29.47,SSE,157,9.6,18.7,29,0.00,,,0.00,Rainwise IP-100,2013-03-31 20:00:00,
2013-03-31 16:05:00,53.1,23.0,29.46,South,180,5.1,16.1,29,0.00,,,0.00,Rainwise IP-100,2013-03-31 20:05:00,
2013-03-31 16:10:00,53.2,23.0,29.46,SSW,202,11.7,16.8,29,0.00,,,0.00,Rainwise IP-100,2013-03-31 20:10:00,
2013-03-31 16:15:00,53.2,23.0,29.46,SSW,202,4.0,13.8,29,0.00,,,0.00,Rainwise IP-100,2013-03-31 20:15:00,
2013-03-31 16:20:00,53.2,23.0,29.46,SSW,202,5.6,11.4,29,0.00,,,0.00,Rainwise IP-100,2013-03-31 20:20:00,
2013-03-31 16:25:00,53.2,23.0,29.45,SSW,202,7.7,15.9,29,0.00,,,0.00,Rainwise IP-100,2013-03-31 20:25:00,
2013-03-31 16:30:00,53.1,23.0,29.45,SSW,202,8.4,18.7,29,0.00,,,0.00,Rainwise IP-100,2013-03-31 20:30:00,
2013-03-31 16:35:00,53.1,23.0,29.45,SW,225,14.7,14.9,29,0.00,,,0.00,Rainwise IP-100,2013-03-31 20:35:00,
2013-03-31 16:40:00,53.1,23.0,29.45,SSW,202,9.1,16.1,29,0.00,,,0.00,Rainwise IP-100,2013-03-31 20:40:00,
2013-03-31 16:45:00,53.1,23.0,29.44,South,180,16.1,16.1,30,0.00,,,0.00,Rainwise IP-100,2013-03-31 20:45:00,
2013-03-31 16:50:00,53.0,23.0,29.44,South,180,6.1,16.8,30,0.00,,,0.00,Rainwise IP-100,2013-03-31 20:50:00,
2013-03-31 16:55:00,53.0,23.0,29.44,SE,135,3.7,14.5,30,0.00,,,0.00,Rainwise IP-100,2013-03-31 20:55:00,
2013-03-31 17:00:00,53.1,23.0,29.44,SSW,202,7.9,14.9,30,0.00,,,0.00,Rainwise IP-100,2013-03-31 21:00:00,
2013-03-31 17:06:00,53.2,23.0,29.44,SSW,202,9.8,11.2,30,0.00,,,0.00,Rainwise IP-100,2013-03-31 21:06:00,
2013-03-31 17:11:00,53.2,23.0,29.44,SSW,202,6.8,12.4,30,0.00,,,0.00,Rainwise IP-100,2013-03-31 21:11:00,
2013-03-31 17:16:00,53.2,23.0,29.43,SSW,202,6.1,8.6,30,0.00,,,0.00,Rainwise IP-100,2013-03-31 21:16:00,
2013-03-31 17:21:00,53.4,24.0,29.43,South,180,4.9,12.1,31,0.00,,,0.00,Rainwise IP-100,2013-03-31 21:21:00,
2013-03-31 17:26:00,53.4,24.0,29.43,SSW,202,2.8,7.5,31,0.00,,,0.00,Rainwise IP-100,2013-03-31 21:26:00,
2013-03-31 17:31:00,53.4,24.0,29.43,South,180,3.7,7.7,31,0.00,,,0.00,Rainwise IP-100,2013-03-31 21:31:00,
2013-03-31 17:36:00,53.3,24.0,29.43,SSE,157,4.0,8.2,31,0.00,,,0.00,Rainwise IP-100,2013-03-31 21:36:00,
2013-03-31 17:42:00,53.3,24.0,29.43,SSW,202,15.6,15.6,31,0.00,,,0.00,Rainwise IP-100,2013-03-31 21:42:00,
2013-03-31 17:47:00,53.4,24.0,29.43,SW,225,9.3,22.6,31,0.00,,,0.00,Rainwise IP-100,2013-03-31 21:47:00,
2013-03-31 17:52:00,53.4,24.0,29.43,South,180,8.4,17.3,31,0.00,,,0.00,Rainwise IP-100,2013-03-31 21:52:00,
2013-03-31 17:57:00,53.4,24.0,29.43,SSE,157,9.1,15.4,31,0.00,,,0.00,Rainwise IP-100,2013-03-31 21:57:00,
2013-03-31 18:02:00,53.3,24.0,29.42,SSE,157,7.0,14.9,31,0.00,,,0.00,Rainwise IP-100,2013-03-31 22:02:00,
2013-03-31 18:07:00,53.3,24.0,29.42,SSW,202,8.6,19.4,31,0.00,,,0.00,Rainwise IP-100,2013-03-31 22:07:00,
2013-03-31 18:12:00,53.3,24.0,29.42,SSW,202,9.3,14.0,31,0.00,,,0.00,Rainwise IP-100,2013-03-31 22:12:00,
2013-03-31 18:17:00,53.2,23.0,29.42,SSW,202,5.6,14.0,31,0.00,,,0.00,Rainwise IP-100,2013-03-31 22:17:00,
2013-03-31 18:22:00,53.2,23.0,29.42,SW,225,7.9,16.1,31,0.00,,,0.00,Rainwise IP-100,2013-03-31 22:22:00,
2013-03-31 18:27:00,53.1,23.0,29.42,SW,225,6.3,14.5,31,0.00,,,0.00,Rainwise IP-100,2013-03-31 22:27:00,
2013-03-31 18:32:00,53.0,23.0,29.42,SSW,202,11.9,14.7,31,0.00,,,0.00,Rainwise IP-100,2013-03-31 22:32:00,
2013-03-31 18:37:00,52.9,24.0,29.42,SSW,202,10.7,21.5,32,0.00,,,0.00,Rainwise IP-100,2013-03-31 22:37:00,
2013-03-31 18:42:00,52.8,24.0,29.41,SSW,202,7.0,15.2,32,0.00,,,0.00,Rainwise IP-100,2013-03-31 22:42:00,
2013-03-31 18:47:00,52.7,24.0,29.42,SSW,202,10.5,17.7,32,0.00,,,0.00,Rainwise IP-100,2013-03-31 22:47:00,
2013-03-31 18:52:00,52.6,24.0,29.42,SW,225,8.6,17.0,33,0.00,,,0.00,Rainwise IP-100,2013-03-31 22:52:00,
2013-03-31 18:58:00,52.4,24.0,29.41,South,180,9.1,13.5,33,0.00,,,0.00,Rainwise IP-100,2013-03-31 22:58:00,
2013-03-31 19:03:00,52.2,24.0,29.41,SSE,157,2.6,12.1,33,0.00,,,0.00,Rainwise IP-100,2013-03-31 23:03:00,
2013-03-31 19:08:00,51.9,24.0,29.41,SSW,202,7.5,8.4,34,0.00,,,0.00,Rainwise IP-100,2013-03-31 23:08:00,
2013-03-31 19:13:00,51.8,24.0,29.41,SSW,202,9.3,10.0,34,0.00,,,0.00,Rainwise IP-100,2013-03-31 23:13:00,
2013-03-31 19:18:00,51.8,24.0,29.41,SSW,202,14.5,14.7,34,0.00,,,0.00,Rainwise IP-100,2013-03-31 23:18:00,
2013-03-31 19:23:00,51.7,24.0,29.41,SSW,202,7.5,18.0,34,0.00,,,0.00,Rainwise IP-100,2013-03-31 23:23:00,
2013-03-31 19:28:00,51.5,24.0,29.41,South,180,7.5,20.8,34,0.00,,,0.00,Rainwise IP-100,2013-03-31 23:28:00,
2013-03-31 19:33:00,51.4,24.0,29.41,South,180,7.7,19.4,34,0.00,,,0.00,Rainwise IP-100,2013-03-31 23:33:00,
2013-03-31 19:38:00,51.3,24.0,29.41,SSW,202,3.7,16.8,35,0.00,,,0.00,Rainwise IP-100,2013-03-31 23:38:00,
2013-03-31 19:43:00,51.1,24.0,29.41,SSW,202,14.9,21.5,35,0.00,,,0.00,Rainwise IP-100,2013-03-31 23:43:00,
2013-03-31 19:48:00,51.0,26.0,29.41,SSW,202,6.8,18.7,36,0.00,,,0.00,Rainwise IP-100,2013-03-31 23:48:00,
2013-03-31 19:53:00,50.9,26.0,29.41,SW,225,12.4,17.7,36,0.00,,,0.00,Rainwise IP-100,2013-03-31 23:53:00,
2013-03-31 19:58:00,50.7,26.0,29.41,SSE,157,15.9,22.6,37,0.00,,,0.00,Rainwise IP-100,2013-03-31 23:58:00,
2013-03-31 20:03:00,50.5,26.0,29.41,SSE,157,7.5,22.6,38,0.00,,,0.00,Rainwise IP-100,2013-04-01 00:03:00,
2013-03-31 20:08:00,50.3,26.0,29.41,SSE,157,11.7,19.8,38,0.00,,,0.00,Rainwise IP-100,2013-04-01 00:08:00,
2013-03-31 20:14:00,49.8,26.0,29.41,SSW,202,16.3,25.2,40,0.00,,,0.00,Rainwise IP-100,2013-04-01 00:14:00,
2013-03-31 20:19:00,49.1,28.0,29.41,SSW,202,13.1,26.3,44,0.00,,,0.00,Rainwise IP-100,2013-04-01 00:19:00,
2013-03-31 20:24:00,48.4,29.0,29.42,SSW,202,10.7,22.4,47,0.00,,,0.00,Rainwise IP-100,2013-04-01 00:24:00,
2013-03-31 20:29:00,47.7,31.0,29.41,SSW,202,13.1,21.9,50,0.00,,,0.00,Rainwise IP-100,2013-04-01 00:29:00,
2013-03-31 20:34:00,47.1,31.0,29.42,SSW,202,15.4,22.2,53,0.00,,,0.00,Rainwise IP-100,2013-04-01 00:34:00,
2013-03-31 20:39:00,46.7,32.0,29.42,SSW,202,11.7,15.9,55,0.00,,,0.00,Rainwise IP-100,2013-04-01 00:39:00,
2013-03-31 20:44:00,46.5,32.0,29.42,SSW,202,6.5,16.8,57,0.00,,,0.00,Rainwise IP-100,2013-04-01 00:44:00,
2013-03-31 20:49:00,46.2,32.0,29.42,SSE,157,9.8,14.7,58,0.00,,,0.00,Rainwise IP-100,2013-04-01 00:49:00,
2013-03-31 20:54:00,45.8,33.0,29.42,SSW,202,9.1,19.8,60,0.00,,,0.00,Rainwise IP-100,2013-04-01 00:54:00,
2013-03-31 20:59:00,45.3,33.0,29.42,SSW,202,11.9,20.5,62,0.00,,,0.00,Rainwise IP-100,2013-04-01 00:59:00,
2013-03-31 21:04:00,45.0,33.0,29.41,South,180,15.2,21.2,64,0.00,,,0.00,Rainwise IP-100,2013-04-01 01:04:00,
2013-03-31 21:09:00,44.7,35.0,29.42,SSW,202,11.0,21.9,66,0.00,,,0.00,Rainwise IP-100,2013-04-01 01:09:00,
2013-03-31 21:14:00,44.3,33.0,29.41,SSW,202,13.8,16.8,67,0.00,,,0.00,Rainwise IP-100,2013-04-01 01:14:00,
2013-03-31 21:19:00,44.0,35.0,29.41,South,180,7.2,17.5,69,0.00,,,0.00,Rainwise IP-100,2013-04-01 01:19:00,
2013-03-31 21:24:00,43.8,35.0,29.41,SSE,157,12.4,14.7,70,0.00,,,0.00,Rainwise IP-100,2013-04-01 01:24:00,
2013-03-31 21:30:00,43.5,36.0,29.42,South,180,8.6,14.2,72,0.00,,,0.00,Rainwise IP-100,2013-04-01 01:30:00,
2013-03-31 21:35:00,43.2,35.0,29.42,SSW,202,7.7,12.6,73,0.00,,,0.00,Rainwise IP-100,2013-04-01 01:35:00,
2013-03-31 21:40:00,42.8,36.0,29.41,SSW,202,7.7,9.3,75,0.00,,,0.00,Rainwise IP-100,2013-04-01 01:40:00,
2013-03-31 21:45:00,42.4,36.0,29.41,SSW,202,5.4,10.3,78,0.00,,,0.00,Rainwise IP-100,2013-04-01 01:45:00,
2013-03-31 21:50:00,42.1,37.0,29.41,SW,225,4.2,8.2,80,0.00,,,0.00,Rainwise IP-100,2013-04-01 01:50:00,
2013-03-31 21:55:00,41.7,37.0,29.41,SW,225,2.8,6.8,82,0.00,,,0.00,Rainwise IP-100,2013-04-01 01:55:00,
2013-03-31 22:00:00,41.5,38.0,29.41,SW,225,1.4,3.5,84,0.00,,,0.00,Rainwise IP-100,2013-04-01 02:00:00,
2013-03-31 22:05:00,41.2,37.0,29.40,SW,225,2.3,5.1,85,0.06,,,0.01,Rainwise IP-100,2013-04-01 02:05:00,
2013-03-31 22:10:00,41.1,37.0,29.41,SSW,202,2.3,4.4,86,0.06,,,0.01,Rainwise IP-100,2013-04-01 02:10:00,
2013-03-31 22:15:00,41.0,37.0,29.40,SSW,202,1.6,8.6,86,0.00,,,0.01,Rainwise IP-100,2013-04-01 02:15:00,
2013-03-31 22:20:00,40.9,38.0,29.39,SSE,157,0.0,4.4,87,0.00,,,0.01,Rainwise IP-100,2013-04-01 02:20:00,
2013-03-31 22:25:00,40.8,38.0,29.39,SSE,157,0.0,0.0,88,0.00,,,0.01,Rainwise IP-100,2013-04-01 02:25:00,
2013-03-31 22:30:00,40.7,38.0,29.39,ESE,112,1.2,1.4,88,0.00,,,0.01,Rainwise IP-100,2013-04-01 02:30:00,
2013-03-31 22:35:00,40.5,38.0,29.39,West,270,1.2,2.3,89,0.00,,,0.01,Rainwise IP-100,2013-04-01 02:35:00,
2013-03-31 22:40:00,40.4,37.0,29.39,West,270,0.0,1.2,89,0.00,,,0.01,Rainwise IP-100,2013-04-01 02:40:00,
2013-03-31 22:46:00,40.3,38.0,29.39,West,270,0.0,1.2,90,0.00,,,0.01,Rainwise IP-100,2013-04-01 02:46:00,
2013-03-31 22:51:00,40.2,38.0,29.37,West,270,0.0,1.4,90,0.00,,,0.01,Rainwise IP-100,2013-04-01 02:51:00,
2013-03-31 22:56:00,40.1,38.0,29.37,West,270,0.0,1.9,90,0.00,,,0.01,Rainwise IP-100,2013-04-01 02:56:00,
2013-03-31 23:01:00,40.1,38.0,29.37,West,270,0.0,0.0,91,0.00,,,0.01,Rainwise IP-100,2013-04-01 03:01:00,
2013-03-31 23:06:00,40.0,38.0,29.37,West,270,0.0,0.0,91,0.00,,,0.01,Rainwise IP-100,2013-04-01 03:06:00,
2013-03-31 23:11:00,40.0,38.0,29.37,West,270,0.0,0.0,92,0.06,,,0.02,Rainwise IP-100,2013-04-01 03:11:00,
2013-03-31 23:16:00,39.8,38.0,29.37,West,270,0.0,0.0,92,0.06,,,0.02,Rainwise IP-100,2013-04-01 03:16:00,
2013-03-31 23:21:00,39.7,38.0,29.36,West,270,0.0,0.0,93,0.06,,,0.03,Rainwise IP-100,2013-04-01 03:21:00,
2013-03-31 23:26:00,39.7,38.0,29.35,West,270,0.0,0.0,93,0.06,,,0.04,Rainwise IP-100,2013-04-01 03:26:00,
2013-03-31 23:31:00,39.6,38.0,29.35,West,270,0.0,0.0,93,0.06,,,0.04,Rainwise IP-100,2013-04-01 03:31:00,
2013-03-31 23:36:00,39.5,38.0,29.35,West,270,0.0,0.0,93,0.12,,,0.05,Rainwise IP-100,2013-04-01 03:36:00,
2013-03-31 23:42:00,39.4,38.0,29.34,West,270,1.4,1.9,94,0.06,,,0.05,Rainwise IP-100,2013-04-01 03:42:00,
2013-03-31 23:47:00,39.3,38.0,29.34,West,270,0.0,1.4,94,0.06,,,0.06,Rainwise IP-100,2013-04-01 03:47:00,
2013-03-31 23:52:00,39.3,38.0,29.33,West,270,0.0,0.0,95,0.06,,,0.06,Rainwise IP-100,2013-04-01 03:52:00,
2013-03-31 23:57:00,39.2,38.0,29.33,West,270,0.0,0.0,95,0.00,,,0.06,Rainwise IP-100,2013-04-01 03:57:00,